Zurück zum Katalog

FENGYUN 1C DEB

AktivPO
NORAD 32308·DEBRIS·🇨🇳 China

Gestartet May 10, 1999 von Taiyuan Satellite Launch Center

Loading…

Nächste Überflüge (nächste 24 Stunden)

TLE

AktuellSource: Space-Track

Epoche: Sep 14, 2026, 00:06 UTC

1 32308U 99025CWZ 26257.00470329  .00001397  00000-0  81982-3 0  9999
2 32308  97.7604 275.9930 0105872 344.6231  15.1732 14.06694565692802

Verfolge FENGYUN 1C DEB in Echtzeit mit AllMySat

Download on the App Store